| time (UTC) | temp F | wind direction | speed knots | gust knots | rain 1hr in | rain 24hr in | rain mn in | humidity % | barometer mb |
| 20260506220209 | 50 | 202 | 4.3 | 0.0 | 0.00 | 0.00 | 0.11 | 81 | 1008.1 |
| 20260506213209 | 50 | 202 | 4.3 | 0.0 | 0.00 | 0.00 | 0.11 | 82 | 1007.8 |
| 20260506210210 | 50 | 202 | 4.3 | 0.0 | 0.00 | 0.00 | 0.11 | 82 | 1007.8 |
| 20260506203210 | 51 | 202 | 4.3 | 0.0 | 0.00 | 0.00 | 0.11 | 81 | 1007.9 |
| 20260506200210 | 51 | 202 | 4.3 | 0.0 | 0.00 | 0.00 | 0.11 | 82 | 1007.8 |
| 20260506193215 | 51 | 202 | 4.3 | 0.0 | 0.00 | 0.00 | 0.11 | 80 | 1007.0 |
| 20260506190211 | 53 | 202 | 4.3 | 0.0 | 0.00 | 0.00 | 0.11 | 80 | 1006.9 |
| 20260506183209 | 52 | 202 | 4.3 | 0.0 | 0.00 | 0.00 | 0.11 | 80 | 1006.7 |
| 20260506180216 | 53 | 202 | 4.3 | 0.0 | 0.00 | 0.00 | 0.11 | 79 | 1006.4 |
| 20260506173210 | 54 | 202 | 4.3 | 0.0 | 0.00 | 0.00 | 0.11 | 77 | 1005.9 |
| 20260506170215 | 55 | 202 | 4.3 | 0.0 | 0.00 | 0.00 | 0.11 | 77 | 1005.6 |
| 20260506163210 | 55 | 202 | 4.3 | 0.0 | 0.00 | 0.00 | 0.06 | 75 | 1005.7 |
| 20260506160210 | 56 | 225 | 0.0 | 0.0 | 0.00 | 0.00 | 0.03 | 71 | 1005.5 |
| 20260506153210 | 59 | 225 | 8.7 | 0.0 | 0.00 | 0.00 | 0.00 | 64 | 1004.4 |
| 20260506150210 | 65 | 225 | 10.4 | 0.0 | 0.00 | 0.00 | 0.00 | 57 | 1003.8 |
| 20260506143210 | 66 | 292 | 5.2 | 0.0 | 0.00 | 0.00 | 0.00 | 57 | 1004.2 |
| 20260506140210 | 66 | 225 | 0.0 | 0.0 | 0.00 | 0.00 | 0.00 | 57 | 1003.9 |
| 20260506133211 | 65 | 225 | 0.0 | 0.0 | 0.00 | 0.00 | 0.00 | 57 | 1003.9 |
| 20260506130211 | 65 | 225 | 0.0 | 0.0 | 0.00 | 0.00 | 0.00 | 58 | 1003.9 |
| 20260506123210 | 65 | 225 | 0.0 | 0.0 | 0.00 | 0.00 | 0.00 | 59 | 1003.9 |
| 20260506120210 | 63 | 225 | 0.0 | 0.0 | 0.00 | 0.00 | 0.00 | 60 | 1004.2 |
| 20260506113217 | 63 | 225 | 0.0 | 0.0 | 0.00 | 0.00 | 0.00 | 60 | 1004.2 |
| 20260506110210 | 62 | 225 | 0.0 | 0.0 | 0.00 | 0.00 | 0.00 | 65 | 1004.4 |
| 20260506100213 | 52 | 315 | 0.0 | 0.0 | 0.00 | 0.00 | 0.00 | 80 | 1007.1 |
| 20260506093211 | 52 | 315 | 0.0 | 0.0 | 0.00 | 0.00 | 0.00 | 80 | 1007.1 |
| 20260506090211 | 52 | 315 | 0.0 | 0.0 | 0.00 | 0.00 | 0.00 | 80 | 1007.1 |
| 20260506083211 | 52 | 315 | 0.0 | 0.0 | 0.00 | 0.00 | 0.00 | 80 | 1007.1 |
| 20260506080212 | 52 | 315 | 0.0 | 0.0 | 0.00 | 0.00 | 0.00 | 80 | 1007.1 |
| 20260506073211 | 52 | 315 | 0.0 | 0.0 | 0.00 | 0.00 | 0.00 | 80 | 1007.1 |
| 20260506070212 | 52 | 315 | 0.0 | 0.0 | 0.00 | 0.00 | 0.00 | 80 | 1007.1 |
| 20260506060210 | 52 | 315 | 0.0 | 0.0 | 0.00 | 0.00 | 0.00 | 80 | 1007.1 |
| 20260506050211 | 52 | 315 | 0.0 | 0.0 | 0.00 | 0.00 | 0.00 | 80 | 1007.1 |
| 20260506043211 | 52 | 315 | 0.0 | 0.0 | 0.00 | 0.00 | 0.00 | 80 | 1007.1 |
| 20260506040211 | 52 | 315 | 0.0 | 0.0 | 0.00 | 0.00 | 0.00 | 80 | 1007.1 |
| 20260506033211 | 52 | 315 | 0.0 | 0.0 | 0.00 | 0.00 | 0.00 | 80 | 1007.1 |
| 20260506030212 | 52 | 315 | 0.0 | 0.0 | 0.00 | 0.00 | 0.00 | 80 | 1007.1 |
| 20260506023211 | 52 | 315 | 0.0 | 0.0 | 0.00 | 0.00 | 0.00 | 80 | 1007.1 |
| 20260506020212 | 52 | 315 | 0.0 | 0.0 | 0.00 | 0.00 | 0.00 | 80 | 1007.1 |
| 20260506013211 | 52 | 315 | 0.0 | 0.0 | 0.00 | 0.00 | 0.00 | 80 | 1007.1 |
| 20260506010212 | 52 | 315 | 0.0 | 0.0 | 0.00 | 0.00 | 0.00 | 80 | 1007.1 |
| 20260506003209 | 52 | 315 | 0.0 | 0.0 | 0.00 | 0.00 | 0.00 | 80 | 1007.1 |
| 20260506000211 | 52 | 315 | 0.0 | 0.0 | 0.00 | 0.00 | 0.00 | 80 | 1007.1 |
| 20260505233209 | 53 | 247 | 0.0 | 0.0 | 0.00 | 0.00 | 0.00 | 78 | 1007.0 |
| 20260505230209 | 54 | 225 | 0.0 | 0.0 | 0.00 | 0.00 | 0.00 | 78 | 1007.3 |
| 20260505223210 | 55 | 247 | 1.7 | 0.0 | 0.00 | 0.00 | 0.00 | 77 | 1007.4 |